CW1120 Goteborg SE current weather conditions

sailwx.info

Wind from 174 at 1 knots gusting 8

Air temperature 23.9° C
Dewpoint 16.4° C

Last reported at 2020-Aug-06 15:02 UTC.
Time now 2020-Aug-06 16:14 UTC

Location: N 58°01' E 011°35'.
View on Google Maps.

See reports from other nearby stations

  
Tides and Currents Weather Stations Pressure Air Temp Water Temp Dewpoint Dewpoint Depression Visibility Wind Speed Wind Dir Waves Ship Positions
date/time (UTC)wind fromknots sea level pressurealtimeterstation pressurevisibilityair tempwater tempwave heightnotes
2020-Aug-06 15:02 174 1 gusting 8 23.9
2020-Aug-06 14:52 126 1 gusting 6 23.9
2020-Aug-06 14:42 136 2 gusting 6 23.3
2020-Aug-06 14:32 135 3 gusting 6 23.3
2020-Aug-06 14:22 124 2 gusting 11 23.3
2020-Aug-06 14:12 244 6 gusting 10 24.4
2020-Aug-06 14:02 186 2 gusting 6 24.4
2020-Aug-06 13:52 210 1 gusting 6 23.9
2020-Aug-06 13:42 188 1 gusting 11 23.3
2020-Aug-06 13:32 171 6 gusting 12 23.3
2020-Aug-06 13:22 188 4 gusting 11 23.9
2020-Aug-06 13:12 171 4 gusting 12 23.9
2020-Aug-06 13:02 171 4 gusting 9 23.3
2020-Aug-06 12:52 174 3 gusting 11 22.8
2020-Aug-06 12:42 171 6 gusting 11 22.8
2020-Aug-06 12:32 175 6 gusting 10 23.3
2020-Aug-06 12:22 175 6 gusting 12 23.3
2020-Aug-06 12:12 175 4 gusting 12 24.4
2020-Aug-06 12:02 195 2 gusting 7 23.9
2020-Aug-06 11:52 161 4 gusting 9 23.3
2020-Aug-06 11:42 165 1 gusting 12 23.3
2020-Aug-06 11:32 144 5 gusting 8 23.9
2020-Aug-06 11:22 167 4 gusting 9 23.3
2020-Aug-06 11:12 199 3 gusting 7 23.3
2020-Aug-06 11:02 168 2 gusting 10 23.3
2020-Aug-06 10:52 194 3 gusting 7 23.9
2020-Aug-06 10:42 227 1 gusting 6 23.9
2020-Aug-06 10:32 194 3 gusting 6 23.3
2020-Aug-06 10:22 159 3 gusting 9 23.9
2020-Aug-06 10:12 167 2 gusting 11 23.9
2020-Aug-06 10:02 205 4 gusting 7 22.8
2020-Aug-06 09:52 203 5 gusting 8 22.8
2020-Aug-06 09:42 196 5 gusting 7 22.2
2020-Aug-06 09:32 240 4 gusting 9 22.2
2020-Aug-06 09:22 250 4 gusting 7 21.7
2020-Aug-06 09:12 177 3 gusting 7 21.7
2020-Aug-06 09:02 189 3 gusting 7 21.1
2020-Aug-06 08:52 159 5 gusting 9 20.6
2020-Aug-06 08:42 213 4 gusting 6 20.6
2020-Aug-06 08:32 207 4 gusting 8 20.0
2020-Aug-06 08:22 214 5 gusting 7 20.0
2020-Aug-06 08:12 198 3 gusting 7 20.0
2020-Aug-06 08:02 220 3 gusting 7 19.4
2020-Aug-06 07:52 212 4 gusting 10 18.9
2020-Aug-06 07:42 200 4 gusting 8 18.3
2020-Aug-06 07:32 205 4 gusting 7 18.3
2020-Aug-06 07:22 223 3 gusting 8 17.8
2020-Aug-06 07:12 192 6 gusting 9 17.8
2020-Aug-06 07:02 218 4 gusting 10 18.3
2020-Aug-06 06:52 215 5 gusting 8 17.8
2020-Aug-06 06:42 195 3 gusting 6 17.2
2020-Aug-06 06:32 192 3 gusting 6 17.8
2020-Aug-06 06:22 214 4 gusting 7 17.8
2020-Aug-06 06:12 219 5 gusting 7 17.8
2020-Aug-06 06:02 207 3 gusting 6 17.8
2020-Aug-06 05:52 220 5 gusting 10 17.2
2020-Aug-06 05:42 204 4 gusting 9 17.2
2020-Aug-06 05:32 213 2 gusting 6 17.2
2020-Aug-06 05:22 190 2 gusting 4 17.2
2020-Aug-06 05:12 201 2 gusting 4 17.2
2020-Aug-06 05:02 201 1 gusting 5 16.7
2020-Aug-06 04:52 223 2 gusting 5 16.7
2020-Aug-06 04:42 225 2 gusting 6 16.7
2020-Aug-06 04:32 210 3 gusting 6 16.7
2020-Aug-06 04:22 215 3 gusting 6 16.1
2020-Aug-06 04:13 211 3 gusting 6 16.1
2020-Aug-06 04:02 206 3 gusting 6 16.7
2020-Aug-06 03:52 204 3 gusting 5 16.7
2020-Aug-06 03:42 198 2 gusting 7 16.7
2020-Aug-06 03:32 217 5 gusting 8 16.7
2020-Aug-06 03:22 223 6 gusting 7 16.7
2020-Aug-06 03:12 217 3 gusting 7 16.7
2020-Aug-06 03:02 217 4 gusting 10 16.7
2020-Aug-06 02:52 190 4 gusting 10 16.7
2020-Aug-06 02:42 213 5 gusting 9 16.7
2020-Aug-06 02:32 237 5 gusting 11 16.7
2020-Aug-06 02:22 188 5 gusting 9 16.7
2020-Aug-06 02:12 201 4 gusting 12 16.7
2020-Aug-06 02:02 198 2 gusting 6 16.7
2020-Aug-06 01:52 210 4 gusting 9 16.7
2020-Aug-06 01:42 213 5 gusting 9 16.7
2020-Aug-06 01:32 211 5 gusting 9 16.7
2020-Aug-06 01:22 232 4 gusting 9 16.7
2020-Aug-06 01:12 155 5 gusting 10 16.7
2020-Aug-06 01:02 198 5 gusting 10 16.7
2020-Aug-06 00:52 214 5 gusting 11 16.7
2020-Aug-06 00:42 240 5 gusting 9 16.7
2020-Aug-06 00:32 212 6 gusting 10 16.7
2020-Aug-06 00:22 220 6 gusting 12 16.7
2020-Aug-06 00:12 223 8 gusting 13 16.7
2020-Aug-06 00:02 209 8 gusting 13 16.7
2020-Aug-05 23:52 223 7 gusting 13 16.7
2020-Aug-05 23:42 221 7 gusting 12 16.7
2020-Aug-05 23:32 212 6 gusting 12 16.7
2020-Aug-05 23:22 219 9 gusting 13 16.7
2020-Aug-05 23:12 234 6 gusting 11 16.7
2020-Aug-05 23:02 222 8 gusting 12 16.7
2020-Aug-05 22:52 207 6 gusting 11 16.7
2020-Aug-05 22:42 221 6 gusting 11 16.7
2020-Aug-05 22:32 227 7 gusting 11 16.7
2020-Aug-05 22:22 207 8 gusting 11 16.7
2020-Aug-05 22:12 202 9 gusting 13 16.7
2020-Aug-05 22:02 229 10 gusting 13 16.7
2020-Aug-05 21:52 216 8 gusting 12 16.7
2020-Aug-05 21:42 219 9 gusting 16 16.7
2020-Aug-05 21:32 211 12 gusting 15 16.7
2020-Aug-05 21:22 217 12 gusting 15 16.7
2020-Aug-05 21:12 229 12 gusting 19 16.7
2020-Aug-05 21:02 215 13 gusting 17 16.7
2020-Aug-05 20:52 232 12 gusting 15 16.7
2020-Aug-05 20:42 224 10 gusting 14 16.7
2020-Aug-05 20:32 244 9 gusting 14 16.7
2020-Aug-05 20:22 225 10 gusting 14 16.7
2020-Aug-05 20:12 223 10 gusting 17 16.7
2020-Aug-05 20:02 216 13 gusting 16 16.7
2020-Aug-05 19:52 233 13 gusting 16 16.7
2020-Aug-05 19:42 209 11 gusting 14 16.7
2020-Aug-05 19:32 223 8 gusting 13 16.7
2020-Aug-05 19:22 223 8 gusting 13 16.7
2020-Aug-05 19:12 228 9 gusting 15 16.7
2020-Aug-05 19:02 229 11 gusting 16 16.7
2020-Aug-05 18:52 227 13 gusting 18 16.7
2020-Aug-05 18:42 225 11 gusting 17 16.7
2020-Aug-05 18:32 236 11 gusting 14 16.7
2020-Aug-05 18:22 216 6 gusting 11 16.7
2020-Aug-05 18:12 226 6 gusting 18 16.1
2020-Aug-05 18:02 189 7 gusting 18 16.1
2020-Aug-05 17:52 211 6 gusting 13 16.1
2020-Aug-05 17:42 187 6 gusting 13 16.1
2020-Aug-05 17:32 195 7 gusting 15 16.1
2020-Aug-05 17:22 178 6 gusting 18 16.1
2020-Aug-05 17:12 213 8 gusting 17 15.6
2020-Aug-05 17:02 155 6 gusting 14 15.6
2020-Aug-05 16:52 177 6 gusting 12 15.6
2020-Aug-05 16:42 211 6 gusting 13 15.6
2020-Aug-05 16:32 207 7 gusting 19 15.6
2020-Aug-05 16:22 159 8 gusting 14 15.6
2020-Aug-05 16:12 200 7 gusting 13 15.6
2020-Aug-05 16:02 201 6 gusting 12 15.6
2020-Aug-05 15:52 204 6 gusting 16 15.6
2020-Aug-05 15:42 178 9 gusting 16 15.6
2020-Aug-05 15:32 186 9 gusting 17 15.6
2020-Aug-05 15:22 184 8 gusting 17 15.6
2020-Aug-05 15:12 226 5 gusting 19 15.6
2020-Aug-05 15:02 234 6 gusting 19 15.6
2020-Aug-05 14:52 182 7 gusting 16 15.6
2020-Aug-05 14:42 207 9 gusting 22 15.6
2020-Aug-05 14:32 192 7 gusting 19 15.6
2020-Aug-05 14:22 217 6 gusting 19 16.1
2020-Aug-05 14:12 207 7 gusting 15 16.1
2020-Aug-05 14:02 201 6 gusting 17 15.6
2020-Aug-05 13:52 207 9 gusting 14 15.6
2020-Aug-05 13:42 173 7 gusting 13 15.6
2020-Aug-05 13:32 140 7 gusting 14 15.6
2020-Aug-05 13:22 220 5 gusting 12 15.6
2020-Aug-05 13:12 213 6 gusting 13 15.6
2020-Aug-05 13:02 195 4 gusting 14 15.0
2020-Aug-05 12:52 209 6 gusting 19 15.0
2020-Aug-05 12:42 199 6 gusting 12 15.0
2020-Aug-05 12:32 184 6 gusting 15 15.0
2020-Aug-05 12:22 194 6 gusting 16 15.0
2020-Aug-05 12:12 199 6 gusting 21 15.0
2020-Aug-05 12:02 190 8 gusting 17 15.0
2020-Aug-05 11:52 185 8 gusting 18 14.4
2020-Aug-05 11:42 173 12 gusting 20 15.0
2020-Aug-05 11:32 169 9 gusting 19 15.0
2020-Aug-05 11:22 198 11 gusting 21 15.0
2020-Aug-05 11:12 213 9 gusting 19 15.0
2020-Aug-05 11:02 200 8 gusting 19 15.0
2020-Aug-05 10:52 196 8 gusting 16 15.0
2020-Aug-05 10:42 200 7 gusting 20 15.0
2020-Aug-05 10:32 196 10 gusting 20 15.0
2020-Aug-05 10:22 217 10 gusting 22 15.0
2020-Aug-05 10:12 168 10 gusting 19 15.0
2020-Aug-05 10:02 168 11 gusting 20 15.0
2020-Aug-05 09:52 243 9 gusting 19 15.0
2020-Aug-05 09:42 133 3 gusting 19 15.0
2020-Aug-05 09:32 205 6 gusting 19 15.0
2020-Aug-05 09:22 183 6 gusting 19 14.4
2020-Aug-05 09:12 201 7 gusting 19 14.4
2020-Aug-05 09:02 189 5 gusting 13 14.4
2020-Aug-05 08:52 196 6 gusting 14 13.9
2020-Aug-05 08:42 134 6 gusting 19 13.9
2020-Aug-05 08:32 190 8 gusting 19 13.9
2020-Aug-05 08:22 168 6 gusting 19 13.9
2020-Aug-05 08:12 207 6 gusting 14 13.9
2020-Aug-05 08:02 155 5 gusting 13 13.9
2020-Aug-05 07:52 159 6 gusting 16 13.9
2020-Aug-05 07:42 195 6 gusting 18 13.3
2020-Aug-05 07:32 256 6 gusting 12 13.3
2020-Aug-05 07:22 218 5 gusting 14 13.3
2020-Aug-05 07:12 193 5 gusting 12 13.3
2020-Aug-05 07:02 161 4 gusting 10 13.3
2020-Aug-05 06:52 173 5 gusting 11 12.8
2020-Aug-05 06:42 200 4 gusting 13 12.8
2020-Aug-05 06:32 196 5 gusting 12 12.8
2020-Aug-05 06:22 196 6 gusting 11 12.8
2020-Aug-05 06:12 215 5 gusting 11 12.8
2020-Aug-05 06:02 214 4 gusting 18 13.3
2020-Aug-05 05:52 192 7 gusting 16 13.3
2020-Aug-05 05:43 232 6 gusting 14 13.3
2020-Aug-05 05:32 188 6 gusting 11 13.9
2020-Aug-05 05:22 238 6 gusting 13 13.3
2020-Aug-05 05:12 180 7 gusting 17 13.3
2020-Aug-05 05:02 196 12 gusting 18 13.9
2020-Aug-05 04:52 221 9 gusting 16 13.9
2020-Aug-05 04:42 228 10 gusting 16 13.9
2020-Aug-05 04:32 214 12 gusting 16 13.9
2020-Aug-05 04:22 211 9 gusting 17 13.9
2020-Aug-05 04:12 210 13 gusting 19 13.9
2020-Aug-05 04:02 248 13 gusting 17 14.4
2020-Aug-05 03:52 225 13 gusting 18 14.4
2020-Aug-05 03:42 215 13 gusting 19 14.4
2020-Aug-05 03:32 215 13 gusting 19 14.4
2020-Aug-05 03:22 221 14 gusting 19 15.0
2020-Aug-05 03:12 233 11 gusting 14 15.0
2020-Aug-05 03:02 222 12 gusting 16 14.4
2020-Aug-05 02:52 204 7 gusting 14 14.4
2020-Aug-05 02:42 218 11 gusting 15 14.4
2020-Aug-05 02:32 231 8 gusting 15 14.4
2020-Aug-05 02:22 206 9 gusting 15 14.4
2020-Aug-05 02:12 194 8 gusting 13 14.4
2020-Aug-05 02:02 223 10 gusting 14 14.4
2020-Aug-05 01:52 225 11 gusting 15 14.4
2020-Aug-05 01:42 227 9 gusting 13 14.4
2020-Aug-05 01:32 222 10 gusting 15 14.4
2020-Aug-05 01:22 223 10 gusting 14 14.4
2020-Aug-05 01:12 217 9 gusting 16 14.4
2020-Aug-05 01:02 198 10 gusting 15 14.4
2020-Aug-05 00:52 220 11 gusting 14 14.4
2020-Aug-05 00:42 237 9 gusting 14 14.4
2020-Aug-05 00:32 244 7 gusting 14 14.4
2020-Aug-05 00:22 240 11 gusting 14 13.9
2020-Aug-05 00:12 209 9 gusting 16 14.4
2020-Aug-05 00:02 229 12 gusting 15 13.9
2020-Aug-04 23:52 198 10 gusting 15 13.9
2020-Aug-04 23:42 213 7 gusting 15 13.9
2020-Aug-04 23:32 232 8 gusting 16 13.9
2020-Aug-04 23:22 242 10 gusting 15 13.9
2020-Aug-04 23:12 201 10 gusting 14 13.9
2020-Aug-04 23:02 198 9 gusting 15 13.9
2020-Aug-04 22:52 236 10 gusting 15 13.9
2020-Aug-04 22:42 238 12 gusting 15 13.9
2020-Aug-04 22:32 236 10 gusting 14 13.9
2020-Aug-04 22:22 248 11 gusting 17 13.9
2020-Aug-04 22:12 232 13 gusting 17 13.9
2020-Aug-04 22:02 223 10 gusting 14 13.9
2020-Aug-04 21:52 242 9 gusting 16 13.9
2020-Aug-04 21:42 238 11 gusting 15 13.9
2020-Aug-04 21:32 213 9 gusting 15 13.9
2020-Aug-04 21:22 222 9 gusting 15 13.9
2020-Aug-04 21:12 245 12 gusting 15 13.9
2020-Aug-04 21:02 217 10 gusting 17 14.4
2020-Aug-04 20:52 242 13 gusting 18 14.4
2020-Aug-04 20:42 240 11 gusting 16 14.4
2020-Aug-04 20:32 255 12 gusting 18 14.4
2020-Aug-04 20:22 250 13 gusting 16 14.4
2020-Aug-04 20:12 250 12 gusting 18 13.9
2020-Aug-04 20:02 232 11 gusting 17 13.9
2020-Aug-04 19:52 246 12 gusting 19 13.9
2020-Aug-04 19:42 239 12 gusting 17 13.9
2020-Aug-04 19:32 269 12 gusting 17 13.9
2020-Aug-04 19:22 287 12 gusting 17 13.9
2020-Aug-04 19:12 272 13 gusting 18 13.9
2020-Aug-04 19:02 249 15 gusting 18 14.4
2020-Aug-04 18:52 256 14 gusting 18 14.4
2020-Aug-04 18:42 262 12 gusting 17 14.4
2020-Aug-04 18:32 244 12 gusting 19 14.4
2020-Aug-04 18:22 225 10 gusting 18 15.0
2020-Aug-04 18:12 267 13 gusting 18 15.0
2020-Aug-04 18:02 250 11 gusting 17 15.6
2020-Aug-04 17:52 256 14 gusting 19 15.6
2020-Aug-04 17:42 253 14 gusting 19 15.6
2020-Aug-04 17:32 251 14 gusting 19 16.1
2020-Aug-04 17:22 254 16 gusting 19 16.1
2020-Aug-04 17:12 251 15 gusting 19 16.1
2020-Aug-04 17:02 253 14 gusting 18 16.1
2020-Aug-04 16:52 246 15 gusting 19 16.1
2020-Aug-04 16:42 258 13 gusting 19 16.7
2020-Aug-04 16:32 252 13 gusting 17 16.7
2020-Aug-04 16:22 244 13 gusting 19 16.7
2020-Aug-04 16:12 277 14 gusting 19 16.7
2020-Aug-04 16:02 250 12 gusting 19 17.2